PRIVATE WETTERSTATION BILLIGHEIM-ALLFELD                       ZURCK
Wetterdaten: Sonntag, 07.09.2014
Datum Zeit Temp. A. Temp. A. min Temp. A. max Feuchte A. Luftdruck Regen Wind Richtung Richtung Sonnenschein ET Solar Taupunkt Windchill Windben Empfang
07.09.2014 00:00 15,4 C 15,4 C 15,5 C 87 % 1011,8 hPa 0,0 l/m 0,0 km/h (0 Bft) N-NO 22 0 min 0,000 mm 0 W/m 13,2 C 15,4 C 1,6 km/h (1 Bft) 98 %
07.09.2014 00:10 15,3 C 15,3 C 15,4 C 88 % 1011,8 hPa 0,0 l/m 0,0 km/h (0 Bft) N-NO 22 0 min 0,000 mm 0 W/m 13,3 C 15,3 C 1,6 km/h (1 Bft) 98 %
07.09.2014 00:20 15,1 C 15,1 C 15,3 C 87 % 1011,8 hPa 0,0 l/m 0,0 km/h (0 Bft) N-NO 22 0 min 0,000 mm 0 W/m 13,0 C 15,1 C 1,6 km/h (1 Bft) 97 %
07.09.2014 00:30 15,1 C 15,1 C 15,1 C 88 % 1011,8 hPa 0,0 l/m 0,0 km/h (0 Bft) N 360 0 min 0,000 mm 0 W/m 13,1 C 15,1 C 1,6 km/h (1 Bft) 97 %
07.09.2014 00:40 15,1 C 15,1 C 15,1 C 88 % 1011,9 hPa 0,0 l/m 0,0 km/h (0 Bft) N 0 0 min 0,000 mm 0 W/m 13,1 C 15,1 C 0,0 km/h (0 Bft) 98 %
07.09.2014 00:50 15,0 C 14,9 C 15,1 C 88 % 1011,9 hPa 0,0 l/m 0,0 km/h (0 Bft) N 0 0 min 0,000 mm 0 W/m 13,0 C 15,0 C 0,0 km/h (0 Bft) 98 %
07.09.2014 01:00 15,1 C 15,0 C 15,1 C 88 % 1012,0 hPa 0,0 l/m 0,0 km/h (0 Bft) N 0 0 min 0,000 mm 0 W/m 13,1 C 15,1 C 0,0 km/h (0 Bft) 98 %
07.09.2014 01:10 15,1 C 15,1 C 15,1 C 87 % 1012,1 hPa 0,0 l/m 0,0 km/h (0 Bft) N 360 0 min 0,000 mm 0 W/m 13,0 C 15,1 C 1,6 km/h (1 Bft) 97 %
07.09.2014 01:20 15,1 C 15,1 C 15,1 C 87 % 1012,0 hPa 0,0 l/m 0,0 km/h (0 Bft) N 360 0 min 0,000 mm 0 W/m 13,0 C 15,1 C 1,6 km/h (1 Bft) 97 %
07.09.2014 01:30 14,8 C 14,8 C 15,1 C 88 % 1012,1 hPa 0,0 l/m 0,0 km/h (0 Bft) N 360 0 min 0,000 mm 0 W/m 12,8 C 14,8 C 1,6 km/h (1 Bft) 97 %
07.09.2014 01:40 14,6 C 14,6 C 14,8 C 88 % 1012,0 hPa 0,0 l/m 0,0 km/h (0 Bft) N 0 0 min 0,000 mm 0 W/m 12,6 C 14,6 C 0,0 km/h (0 Bft) 98 %
07.09.2014 01:50 14,5 C 14,5 C 14,6 C 88 % 1012,0 hPa 0,0 l/m 0,0 km/h (0 Bft) N 0 0 min 0,000 mm 0 W/m 12,5 C 14,5 C 0,0 km/h (0 Bft) 98 %
07.09.2014 02:00 14,5 C 14,5 C 14,6 C 88 % 1012,0 hPa 0,0 l/m 0,0 km/h (0 Bft) N 0 0 min 0,000 mm 0 W/m 12,5 C 14,5 C 0,0 km/h (0 Bft) 98 %
07.09.2014 02:10 14,3 C 14,3 C 14,5 C 88 % 1011,9 hPa 0,0 l/m 0,0 km/h (0 Bft) N 0 0 min 0,000 mm 0 W/m 12,3 C 14,3 C 0,0 km/h (0 Bft) 97 %
07.09.2014 02:20 14,4 C 14,3 C 14,4 C 88 % 1011,9 hPa 0,0 l/m 0,0 km/h (0 Bft) N 0 0 min 0,000 mm 0 W/m 12,4 C 14,4 C 0,0 km/h (0 Bft) 98 %
07.09.2014 02:30 14,3 C 14,3 C 14,4 C 88 % 1011,9 hPa 0,0 l/m 0,0 km/h (0 Bft) N 0 0 min 0,000 mm 0 W/m 12,3 C 14,3 C 0,0 km/h (0 Bft) 98 %
07.09.2014 02:40 14,2 C 14,2 C 14,3 C 88 % 1011,9 hPa 0,0 l/m 0,0 km/h (0 Bft) N 360 0 min 0,000 mm 0 W/m 12,2 C 14,2 C 1,6 km/h (1 Bft) 97 %
07.09.2014 02:50 14,1 C 14,1 C 14,2 C 88 % 1011,9 hPa 0,0 l/m 0,0 km/h (0 Bft) N 0 0 min 0,000 mm 0 W/m 12,1 C 14,1 C 0,0 km/h (0 Bft) 98 %
07.09.2014 03:00 14,0 C 14,0 C 14,1 C 88 % 1011,9 hPa 0,0 l/m 0,0 km/h (0 Bft) N 0 0 min 0,000 mm 0 W/m 12,0 C 14,0 C 0,0 km/h (0 Bft) 98 %
07.09.2014 03:10 13,9 C 13,9 C 14,0 C 88 % 1011,9 hPa 0,0 l/m 0,0 km/h (0 Bft) N 360 0 min 0,000 mm 0 W/m 11,9 C 13,9 C 1,6 km/h (1 Bft) 97 %
07.09.2014 03:20 13,9 C 13,9 C 13,9 C 88 % 1011,9 hPa 0,0 l/m 0,0 km/h (0 Bft) N 360 0 min 0,000 mm 0 W/m 11,9 C 13,9 C 3,2 km/h (1 Bft) 98 %
07.09.2014 03:30 13,9 C 13,9 C 13,9 C 88 % 1012,0 hPa 0,0 l/m 0,0 km/h (0 Bft) N 0 0 min 0,000 mm 0 W/m 11,9 C 13,9 C 0,0 km/h (0 Bft) 87 %
07.09.2014 03:40 13,8 C 13,8 C 13,9 C 88 % 1012,0 hPa 0,0 l/m 0,0 km/h (0 Bft) N 0 0 min 0,000 mm 0 W/m 11,8 C 13,8 C 0,0 km/h (0 Bft) 97 %
07.09.2014 03:50 13,8 C 13,8 C 13,9 C 88 % 1012,0 hPa 0,0 l/m 0,0 km/h (0 Bft) N 0 0 min 0,000 mm 0 W/m 11,8 C 13,8 C 0,0 km/h (0 Bft) 98 %
07.09.2014 04:00 13,8 C 13,7 C 13,8 C 88 % 1011,9 hPa 0,0 l/m 0,0 km/h (0 Bft) N 0 0 min 0,000 mm 0 W/m 11,8 C 13,8 C 0,0 km/h (0 Bft) 97 %
07.09.2014 04:10 13,9 C 13,8 C 13,9 C 87 % 1011,9 hPa 0,0 l/m 0,0 km/h (0 Bft) N 360 0 min 0,000 mm 0 W/m 11,8 C 13,9 C 3,2 km/h (1 Bft) 98 %
07.09.2014 04:20 13,8 C 13,8 C 13,9 C 88 % 1012,0 hPa 0,0 l/m 0,0 km/h (0 Bft) N 0 0 min 0,000 mm 0 W/m 11,8 C 13,8 C 0,0 km/h (0 Bft) 97 %
07.09.2014 04:30 13,8 C 13,8 C 13,8 C 87 % 1011,9 hPa 0,0 l/m 0,0 km/h (0 Bft) N 0 0 min 0,000 mm 0 W/m 11,7 C 13,8 C 0,0 km/h (0 Bft) 98 %
07.09.2014 04:40 13,8 C 13,8 C 13,8 C 88 % 1011,9 hPa 0,0 l/m 0,0 km/h (0 Bft) N 0 0 min 0,000 mm 0 W/m 11,8 C 13,8 C 0,0 km/h (0 Bft) 97 %
07.09.2014 04:50 13,7 C 13,7 C 13,8 C 88 % 1011,9 hPa 0,0 l/m 0,0 km/h (0 Bft) N 0 0 min 0,000 mm 0 W/m 11,7 C 13,7 C 0,0 km/h (0 Bft) 98 %
07.09.2014 05:00 13,7 C 13,7 C 13,8 C 88 % 1011,9 hPa 0,0 l/m 0,0 km/h (0 Bft) N 0 0 min 0,000 mm 0 W/m 11,7 C 13,7 C 0,0 km/h (0 Bft) 97 %
07.09.2014 05:10 13,7 C 13,7 C 13,7 C 88 % 1012,0 hPa 0,0 l/m 0,0 km/h (0 Bft) N 0 0 min 0,000 mm 0 W/m 11,7 C 13,7 C 0,0 km/h (0 Bft) 97 %
07.09.2014 05:20 13,7 C 13,7 C 13,7 C 88 % 1012,0 hPa 0,0 l/m 0,0 km/h (0 Bft) N 0 0 min 0,000 mm 0 W/m 11,7 C 13,7 C 0,0 km/h (0 Bft) 98 %
07.09.2014 05:30 13,7 C 13,7 C 13,7 C 88 % 1012,1 hPa 0,0 l/m 0,0 km/h (0 Bft) N 0 0 min 0,000 mm 0 W/m 11,7 C 13,7 C 0,0 km/h (0 Bft) 98 %
07.09.2014 05:40 13,6 C 13,6 C 13,7 C 88 % 1012,0 hPa 0,0 l/m 0,0 km/h (0 Bft) N 360 0 min 0,000 mm 0 W/m 11,6 C 13,6 C 3,2 km/h (1 Bft) 97 %
07.09.2014 05:50 13,6 C 13,6 C 13,6 C 87 % 1012,1 hPa 0,0 l/m 0,0 km/h (0 Bft) N 0 0 min 0,000 mm 0 W/m 11,5 C 13,6 C 0,0 km/h (0 Bft) 98 %
07.09.2014 06:00 13,6 C 13,6 C 13,6 C 88 % 1012,0 hPa 0,0 l/m 0,0 km/h (0 Bft) N 0 0 min 0,000 mm 0 W/m 11,6 C 13,6 C 0,0 km/h (0 Bft) 98 %
07.09.2014 06:10 13,6 C 13,6 C 13,6 C 88 % 1012,0 hPa 0,0 l/m 0,0 km/h (0 Bft) N 0 0 min 0,000 mm 0 W/m 11,6 C 13,6 C 0,0 km/h (0 Bft) 97 %
07.09.2014 06:20 13,6 C 13,6 C 13,7 C 88 % 1012,0 hPa 0,0 l/m 0,0 km/h (0 Bft) N 0 0 min 0,000 mm 0 W/m 11,6 C 13,6 C 0,0 km/h (0 Bft) 98 %
07.09.2014 06:30 13,6 C 13,6 C 13,6 C 88 % 1012,0 hPa 0,0 l/m 0,0 km/h (0 Bft) N 0 0 min 0,000 mm 0 W/m 11,6 C 13,6 C 0,0 km/h (0 Bft) 97 %
07.09.2014 06:40 13,4 C 13,4 C 13,6 C 88 % 1012,0 hPa 0,0 l/m 0,0 km/h (0 Bft) N 0 0 min 0,000 mm 0 W/m 11,5 C 13,4 C 0,0 km/h (0 Bft) 98 %
07.09.2014 06:50 13,3 C 13,3 C 13,4 C 88 % 1012,0 hPa 0,0 l/m 0,0 km/h (0 Bft) N 0 0 min 0,000 mm 0 W/m 11,4 C 13,3 C 0,0 km/h (0 Bft) 97 %
07.09.2014 07:00 13,3 C 13,3 C 13,3 C 88 % 1012,1 hPa 0,0 l/m 0,0 km/h (0 Bft) N 0 0 min 0,000 mm 7 W/m 11,4 C 13,3 C 0,0 km/h (0 Bft) 98 %
07.09.2014 07:10 13,3 C 13,3 C 13,3 C 88 % 1012,1 hPa 0,0 l/m 0,0 km/h (0 Bft) N 0 0 min 0,000 mm 12 W/m 11,4 C 13,3 C 0,0 km/h (0 Bft) 97 %
07.09.2014 07:20 13,3 C 13,3 C 13,3 C 88 % 1012,1 hPa 0,0 l/m 0,0 km/h (0 Bft) N 0 0 min 0,000 mm 18 W/m 11,4 C 13,3 C 0,0 km/h (0 Bft) 97 %
07.09.2014 07:30 13,4 C 13,3 C 13,4 C 87 % 1012,5 hPa 0,0 l/m 0,0 km/h (0 Bft) N 0 0 min 0,000 mm 25 W/m 11,3 C 13,4 C 0,0 km/h (0 Bft) 99 %
07.09.2014 07:40 13,7 C 13,4 C 13,7 C 88 % 1012,5 hPa 0,0 l/m 0,0 km/h (0 Bft) N 360 0 min 0,000 mm 26 W/m 11,7 C 13,7 C 3,2 km/h (1 Bft) 98 %
07.09.2014 07:50 14,2 C 13,7 C 14,2 C 88 % 1012,6 hPa 0,0 l/m 0,0 km/h (0 Bft) N 360 0 min 0,000 mm 30 W/m 12,2 C 14,2 C 1,6 km/h (1 Bft) 90 %
07.09.2014 08:00 14,3 C 14,2 C 14,3 C 88 % 1012,6 hPa 0,0 l/m 0,0 km/h (0 Bft) N 360 0 min 0,025 mm 49 W/m 12,3 C 14,3 C 1,6 km/h (1 Bft) 98 %
07.09.2014 08:10 14,4 C 14,3 C 14,4 C 88 % 1012,7 hPa 0,0 l/m 0,0 km/h (0 Bft) N 360 0 min 0,000 mm 81 W/m 12,4 C 14,4 C 1,6 km/h (1 Bft) 99 %
07.09.2014 08:20 14,4 C 14,4 C 14,4 C 88 % 1012,7 hPa 0,0 l/m 0,0 km/h (0 Bft) N 0 0 min 0,000 mm 90 W/m 12,4 C 14,4 C 0,0 km/h (0 Bft) 99 %
07.09.2014 08:30 14,6 C 14,4 C 14,6 C 87 % 1012,8 hPa 0,0 l/m 0,0 km/h (0 Bft) N 360 0 min 0,000 mm 97 W/m 12,5 C 14,6 C 1,6 km/h (1 Bft) 99 %
07.09.2014 08:40 14,8 C 14,6 C 14,8 C 88 % 1012,8 hPa 0,0 l/m 0,0 km/h (0 Bft) N 360 0 min 0,000 mm 98 W/m 12,8 C 14,8 C 1,6 km/h (1 Bft) 100 %
07.09.2014 08:50 15,0 C 14,8 C 15,1 C 88 % 1012,8 hPa 0,0 l/m 0,0 km/h (0 Bft) N 360 0 min 0,000 mm 95 W/m 13,0 C 15,0 C 1,6 km/h (1 Bft) 99 %
07.09.2014 09:00 15,1 C 15,1 C 15,1 C 88 % 1013,0 hPa 0,0 l/m 0,0 km/h (0 Bft) N 360 0 min 0,051 mm 109 W/m 13,1 C 15,1 C 1,6 km/h (1 Bft) 100 %
07.09.2014 09:10 15,1 C 15,1 C 15,1 C 88 % 1013,1 hPa 0,0 l/m 0,0 km/h (0 Bft) N-NW 337 0 min 0,000 mm 116 W/m 13,1 C 15,1 C 1,6 km/h (1 Bft) 100 %
07.09.2014 09:20 15,1 C 15,1 C 15,1 C 87 % 1013,1 hPa 0,0 l/m 0,0 km/h (0 Bft) N 360 0 min 0,000 mm 149 W/m 13,0 C 15,1 C 1,6 km/h (1 Bft) 99 %
07.09.2014 09:30 15,3 C 15,1 C 15,3 C 88 % 1013,1 hPa 0,0 l/m 0,0 km/h (0 Bft) N 360 0 min 0,000 mm 93 W/m 13,3 C 15,3 C 1,6 km/h (1 Bft) 100 %
07.09.2014 09:40 15,5 C 15,3 C 15,5 C 88 % 1013,3 hPa 0,0 l/m 0,0 km/h (0 Bft) NO 45 10 min 0,000 mm 174 W/m 13,5 C 15,5 C 1,6 km/h (1 Bft) 100 %
07.09.2014 09:50 15,7 C 15,5 C 15,7 C 88 % 1013,2 hPa 0,0 l/m 0,0 km/h (0 Bft) NO 45 10 min 0,000 mm 230 W/m 13,7 C 15,7 C 3,2 km/h (1 Bft) 99 %
07.09.2014 10:00 16,0 C 15,7 C 16,0 C 88 % 1013,3 hPa 0,0 l/m 0,0 km/h (0 Bft) S-SW 202 10 min 0,076 mm 297 W/m 14,0 C 16,0 C 6,4 km/h (2 Bft) 99 %
07.09.2014 10:10 16,4 C 16,0 C 16,4 C 88 % 1013,3 hPa 0,0 l/m 0,0 km/h (0 Bft) S-SO 157 10 min 0,000 mm 299 W/m 14,4 C 16,4 C 4,8 km/h (1 Bft) 100 %
07.09.2014 10:20 16,6 C 16,3 C 16,6 C 88 % 1013,3 hPa 0,0 l/m 0,0 km/h (0 Bft) S-SO 157 10 min 0,000 mm 366 W/m 14,6 C 16,6 C 3,2 km/h (1 Bft) 100 %
07.09.2014 10:30 16,7 C 16,6 C 16,7 C 88 % 1013,4 hPa 0,0 l/m 0,0 km/h (0 Bft) S-SO 157 10 min 0,000 mm 281 W/m 14,7 C 16,7 C 1,6 km/h (1 Bft) 99 %
07.09.2014 10:40 16,8 C 16,7 C 16,8 C 88 % 1013,5 hPa 0,0 l/m 0,0 km/h (0 Bft) S-SO 157 10 min 0,000 mm 265 W/m 14,8 C 16,8 C 4,8 km/h (1 Bft) 99 %
07.09.2014 10:50 17,1 C 16,8 C 17,1 C 88 % 1013,4 hPa 0,0 l/m 0,0 km/h (0 Bft) S 180 10 min 0,000 mm 227 W/m 15,1 C 17,1 C 6,4 km/h (2 Bft) 99 %
07.09.2014 11:00 17,4 C 17,1 C 17,4 C 88 % 1013,5 hPa 0,0 l/m 0,0 km/h (0 Bft) S 180 10 min 0,152 mm 294 W/m 15,4 C 17,4 C 4,8 km/h (1 Bft) 100 %
07.09.2014 11:10 17,6 C 17,4 C 17,6 C 88 % 1013,5 hPa 0,0 l/m 0,0 km/h (0 Bft) S 180 10 min 0,000 mm 318 W/m 15,6 C 17,6 C 4,8 km/h (1 Bft) 100 %
07.09.2014 11:20 17,9 C 17,6 C 17,9 C 87 % 1013,5 hPa 0,0 l/m 0,0 km/h (0 Bft) S 180 10 min 0,000 mm 399 W/m 15,7 C 17,9 C 4,8 km/h (1 Bft) 100 %
07.09.2014 11:30 18,3 C 17,9 C 18,3 C 87 % 1013,6 hPa 0,0 l/m 0,0 km/h (0 Bft) S 180 10 min 0,000 mm 418 W/m 16,1 C 18,3 C 4,8 km/h (1 Bft) 99 %
07.09.2014 11:40 18,9 C 18,3 C 18,9 C 87 % 1013,5 hPa 0,0 l/m 1,6 km/h (1 Bft) S 180 10 min 0,000 mm 643 W/m 16,7 C 18,9 C 9,7 km/h (2 Bft) 100 %
07.09.2014 11:50 19,1 C 18,9 C 19,1 C 88 % 1013,5 hPa 0,0 l/m 0,0 km/h (0 Bft) S 180 10 min 0,000 mm 487 W/m 17,1 C 19,1 C 4,8 km/h (1 Bft) 100 %
07.09.2014 12:00 19,6 C 19,1 C 19,6 C 87 % 1013,4 hPa 0,0 l/m 0,0 km/h (0 Bft) S-SW 202 10 min 0,229 mm 687 W/m 17,4 C 19,6 C 6,4 km/h (2 Bft) 99 %
07.09.2014 12:10 20,4 C 19,6 C 20,4 C 86 % 1013,3 hPa 0,0 l/m 1,6 km/h (1 Bft) S-SW 202 10 min 0,000 mm 698 W/m 18,0 C 20,4 C 6,4 km/h (2 Bft) 100 %
07.09.2014 12:20 20,7 C 20,4 C 20,7 C 86 % 1013,4 hPa 0,0 l/m 3,2 km/h (1 Bft) S-SW 202 10 min 0,000 mm 696 W/m 18,3 C 20,7 C 9,7 km/h (2 Bft) 99 %
07.09.2014 12:30 21,2 C 20,8 C 21,2 C 82 % 1013,3 hPa 0,0 l/m 0,0 km/h (0 Bft) S-SW 202 10 min 0,000 mm 684 W/m 18,0 C 21,2 C 1,6 km/h (1 Bft) 100 %
07.09.2014 12:40 21,4 C 21,2 C 21,4 C 82 % 1013,1 hPa 0,0 l/m 1,6 km/h (1 Bft) S-SO 157 10 min 0,000 mm 652 W/m 18,2 C 21,4 C 6,4 km/h (2 Bft) 100 %
07.09.2014 12:50 22,2 C 21,2 C 22,2 C 83 % 1013,1 hPa 0,0 l/m 1,7 km/h (1 Bft) S-SW 194 10 min 0,000 mm 668 W/m 19,2 C 22,2 C 9,7 km/h (2 Bft) 97 %
07.09.2014 13:00 22,6 C 22,2 C 22,6 C 80 % 1013,0 hPa 0,0 l/m 1,7 km/h (1 Bft) SO 144 10 min 0,000 mm 684 W/m 19,0 C 22,6 C 9,7 km/h (2 Bft) 98 %
07.09.2014 13:10 22,8 C 22,6 C 22,8 C 80 % 1012,9 hPa 0,0 l/m 1,9 km/h (1 Bft) S-SO 157 10 min 0,356 mm 624 W/m 19,2 C 22,8 C 8,0 km/h (2 Bft) 97 %
07.09.2014 13:20 23,2 C 22,8 C 23,2 C 77 % 1012,8 hPa 0,0 l/m 1,6 km/h (1 Bft) SW 221 10 min 0,000 mm 700 W/m 18,9 C 23,2 C 9,7 km/h (2 Bft) 98 %
07.09.2014 13:30 23,2 C 23,2 C 23,3 C 75 % 1012,7 hPa 0,0 l/m 0,9 km/h (0 Bft) SO 124 10 min 0,000 mm 682 W/m 18,5 C 23,2 C 6,4 km/h (2 Bft) 97 %
07.09.2014 13:40 23,7 C 23,2 C 23,7 C 74 % 1012,8 hPa 0,0 l/m 2,0 km/h (1 Bft) SW 228 10 min 0,000 mm 763 W/m 18,8 C 23,7 C 8,0 km/h (2 Bft) 98 %
07.09.2014 13:50 24,0 C 23,7 C 24,0 C 73 % 1012,6 hPa 0,0 l/m 3,4 km/h (1 Bft) W-NW 298 10 min 0,000 mm 777 W/m 18,9 C 24,0 C 14,5 km/h (3 Bft) 100 %
07.09.2014 14:00 24,5 C 24,0 C 24,5 C 68 % 1012,7 hPa 0,0 l/m 3,6 km/h (1 Bft) W-SW 255 10 min 0,406 mm 708 W/m 18,2 C 24,5 C 9,7 km/h (2 Bft) 100 %
07.09.2014 14:10 24,9 C 24,5 C 24,9 C 65 % 1012,6 hPa 0,0 l/m 3,6 km/h (1 Bft) W 277 10 min 0,000 mm 722 W/m 17,9 C 24,9 C 11,3 km/h (2 Bft) 100 %
07.09.2014 14:20 25,2 C 24,9 C 25,2 C 67 % 1012,6 hPa 0,0 l/m 2,6 km/h (1 Bft) W-SW 254 10 min 0,000 mm 603 W/m 18,6 C 25,2 C 11,3 km/h (2 Bft) 100 %
07.09.2014 14:30 25,2 C 25,2 C 25,2 C 64 % 1012,6 hPa 0,0 l/m 1,6 km/h (1 Bft) NW 304 10 min 0,000 mm 628 W/m 17,9 C 25,2 C 9,7 km/h (2 Bft) 100 %
07.09.2014 14:40 24,9 C 24,9 C 25,2 C 67 % 1012,6 hPa 0,0 l/m 1,9 km/h (1 Bft) W-SW 257 10 min 0,000 mm 185 W/m 18,3 C 24,9 C 9,7 km/h (2 Bft) 100 %
07.09.2014 14:50 24,7 C 24,7 C 24,9 C 67 % 1012,4 hPa 0,0 l/m 1,0 km/h (0 Bft) W 281 10 min 0,000 mm 708 W/m 18,1 C 24,7 C 8,0 km/h (2 Bft) 100 %
07.09.2014 15:00 24,8 C 24,7 C 24,8 C 67 % 1012,3 hPa 0,0 l/m 2,6 km/h (1 Bft) NW 311 10 min 0,331 mm 345 W/m 18,2 C 24,8 C 14,5 km/h (3 Bft) 100 %
07.09.2014 15:10 25,1 C 24,8 C 25,1 C 64 % 1012,3 hPa 0,0 l/m 3,3 km/h (1 Bft) W-NW 303 10 min 0,000 mm 216 W/m 17,8 C 25,1 C 8,0 km/h (2 Bft) 100 %
07.09.2014 15:20 24,7 C 24,7 C 25,1 C 67 % 1012,3 hPa 0,0 l/m 1,7 km/h (1 Bft) NW 316 10 min 0,000 mm 624 W/m 18,1 C 24,7 C 8,0 km/h (2 Bft) 100 %
07.09.2014 15:30 24,8 C 24,7 C 24,8 C 65 % 1012,2 hPa 0,0 l/m 2,2 km/h (1 Bft) N-NW 334 10 min 0,000 mm 577 W/m 17,8 C 24,8 C 11,3 km/h (2 Bft) 100 %
07.09.2014 15:40 25,3 C 24,8 C 25,3 C 61 % 1012,2 hPa 0,0 l/m 3,3 km/h (1 Bft) NW 309 10 min 0,000 mm 582 W/m 17,2 C 25,3 C 12,9 km/h (3 Bft) 100 %
07.09.2014 15:50 25,5 C 25,3 C 25,5 C 61 % 1012,1 hPa 0,0 l/m 1,6 km/h (1 Bft) W-NW 303 10 min 0,000 mm 522 W/m 17,4 C 25,5 C 8,0 km/h (2 Bft) 100 %
07.09.2014 16:00 25,4 C 25,4 C 25,6 C 61 % 1012,1 hPa 0,0 l/m 4,3 km/h (1 Bft) NW 306 10 min 0,304 mm 192 W/m 17,3 C 25,4 C 11,3 km/h (2 Bft) 100 %
07.09.2014 16:10 25,4 C 25,3 C 25,4 C 61 % 1012,0 hPa 0,0 l/m 4,1 km/h (1 Bft) NW 320 10 min 0,000 mm 211 W/m 17,3 C 25,4 C 11,3 km/h (2 Bft) 100 %
07.09.2014 16:20 25,5 C 25,4 C 25,5 C 61 % 1012,1 hPa 0,0 l/m 2,5 km/h (1 Bft) NW 319 10 min 0,000 mm 200 W/m 17,4 C 25,5 C 8,0 km/h (2 Bft) 99 %
07.09.2014 16:30 25,6 C 25,5 C 25,6 C 60 % 1012,1 hPa 0,0 l/m 3,7 km/h (1 Bft) W-NW 291 0 min 0,000 mm 139 W/m 17,2 C 25,6 C 16,1 km/h (3 Bft) 100 %
07.09.2014 16:40 25,3 C 25,3 C 25,6 C 60 % 1012,1 hPa 0,0 l/m 5,6 km/h (1 Bft) W-NW 294 0 min 0,000 mm 123 W/m 17,0 C 25,3 C 11,3 km/h (2 Bft) 100 %
07.09.2014 16:50 25,3 C 25,3 C 25,3 C 60 % 1012,2 hPa 0,0 l/m 3,9 km/h (1 Bft) W-SW 245 0 min 0,000 mm 109 W/m 17,0 C 25,3 C 14,5 km/h (3 Bft) 100 %
07.09.2014 17:00 25,2 C 25,2 C 25,3 C 62 % 1012,1 hPa 0,0 l/m 1,8 km/h (1 Bft) W-NW 290 0 min 0,153 mm 97 W/m 17,4 C 25,2 C 6,4 km/h (2 Bft) 100 %
07.09.2014 17:10 25,0 C 25,0 C 25,2 C 63 % 1012,0 hPa 0,0 l/m 5,4 km/h (1 Bft) NW 308 0 min 0,000 mm 90 W/m 17,5 C 25,0 C 11,3 km/h (2 Bft) 100 %
07.09.2014 17:20 24,7 C 24,7 C 25,0 C 64 % 1012,0 hPa 0,0 l/m 2,0 km/h (1 Bft) W-NW 300 0 min 0,000 mm 88 W/m 17,4 C 24,7 C 8,0 km/h (2 Bft) 100 %
07.09.2014 17:30 24,6 C 24,6 C 24,7 C 64 % 1012,1 hPa 0,0 l/m 1,7 km/h (1 Bft) NW 309 0 min 0,000 mm 86 W/m 17,3 C 24,6 C 8,0 km/h (2 Bft) 100 %
07.09.2014 17:40 24,4 C 24,4 C 24,6 C 65 % 1012,1 hPa 0,0 l/m 2,1 km/h (1 Bft) W-NW 298 0 min 0,000 mm 77 W/m 17,4 C 24,4 C 8,0 km/h (2 Bft) 100 %
07.09.2014 17:50 24,1 C 24,1 C 24,4 C 67 % 1012,2 hPa 0,0 l/m 3,6 km/h (1 Bft) NW 311 0 min 0,000 mm 84 W/m 17,6 C 24,1 C 9,7 km/h (2 Bft) 100 %
07.09.2014 18:00 23,7 C 23,7 C 24,1 C 71 % 1012,2 hPa 0,0 l/m 1,0 km/h (0 Bft) NW 321 0 min 0,076 mm 74 W/m 18,1 C 23,7 C 6,4 km/h (2 Bft) 100 %
07.09.2014 18:10 23,3 C 23,3 C 23,7 C 73 % 1012,2 hPa 0,0 l/m 0,1 km/h (0 Bft) NW 321 0 min 0,000 mm 77 W/m 18,2 C 23,3 C 4,8 km/h (1 Bft) 100 %
07.09.2014 18:20 23,0 C 23,0 C 23,3 C 74 % 1012,4 hPa 0,0 l/m 0,0 km/h (0 Bft) NW 321 0 min 0,000 mm 86 W/m 18,1 C 23,0 C 1,6 km/h (1 Bft) 100 %
07.09.2014 18:30 22,9 C 22,9 C 23,0 C 75 % 1012,5 hPa 0,0 l/m 0,1 km/h (0 Bft) NW 321 0 min 0,000 mm 90 W/m 18,2 C 22,9 C 3,2 km/h (1 Bft) 100 %
07.09.2014 18:40 22,8 C 22,8 C 22,9 C 70 % 1012,5 hPa 0,0 l/m 0,8 km/h (0 Bft) W-NW 298 0 min 0,000 mm 88 W/m 17,0 C 22,8 C 6,4 km/h (2 Bft) 100 %
07.09.2014 18:50 22,8 C 22,8 C 22,8 C 71 % 1012,4 hPa 0,0 l/m 1,3 km/h (1 Bft) W-NW 298 0 min 0,000 mm 44 W/m 17,3 C 22,8 C 8,0 km/h (2 Bft) 100 %
07.09.2014 19:00 22,6 C 22,6 C 22,8 C 74 % 1012,5 hPa 0,0 l/m 0,0 km/h (0 Bft) N-NW 337 0 min 0,051 mm 37 W/m 17,7 C 22,6 C 1,6 km/h (1 Bft) 100 %
07.09.2014 19:10 22,3 C 22,3 C 22,6 C 74 % 1012,5 hPa 0,0 l/m 0,2 km/h (0 Bft) NW 308 0 min 0,000 mm 44 W/m 17,4 C 22,3 C 4,8 km/h (1 Bft) 100 %
07.09.2014 19:20 22,1 C 22,1 C 22,3 C 76 % 1012,5 hPa 0,0 l/m 0,0 km/h (0 Bft) NW 308 0 min 0,000 mm 47 W/m 17,7 C 22,1 C 1,6 km/h (1 Bft) 100 %
07.09.2014 19:30 21,8 C 21,8 C 22,1 C 75 % 1012,6 hPa 0,0 l/m 0,0 km/h (0 Bft) NW 308 0 min 0,000 mm 30 W/m 17,2 C 21,8 C 1,6 km/h (1 Bft) 100 %
07.09.2014 19:40 21,5 C 21,5 C 21,8 C 77 % 1012,8 hPa 0,0 l/m 0,0 km/h (0 Bft) NW 308 0 min 0,000 mm 19 W/m 17,3 C 21,5 C 0,0 km/h (0 Bft) 100 %
07.09.2014 19:50 21,0 C 21,0 C 21,5 C 79 % 1012,9 hPa 0,0 l/m 0,0 km/h (0 Bft) NW 308 0 min 0,000 mm 5 W/m 17,2 C 21,0 C 0,0 km/h (0 Bft) 100 %
07.09.2014 20:00 20,4 C 20,4 C 21,0 C 81 % 1012,9 hPa 0,0 l/m 0,0 km/h (0 Bft) NW 308 0 min 0,025 mm 0 W/m 17,0 C 20,4 C 0,0 km/h (0 Bft) 100 %
07.09.2014 20:10 20,0 C 20,0 C 20,4 C 83 % 1013,0 hPa 0,0 l/m 0,0 km/h (0 Bft) NW 308 0 min 0,000 mm 0 W/m 17,0 C 20,0 C 0,0 km/h (0 Bft) 100 %
07.09.2014 20:20 19,7 C 19,7 C 20,0 C 84 % 1013,2 hPa 0,0 l/m 0,0 km/h (0 Bft) NW 308 0 min 0,000 mm 0 W/m 16,9 C 19,7 C 0,0 km/h (0 Bft) 100 %
07.09.2014 20:30 19,6 C 19,6 C 19,7 C 84 % 1013,2 hPa 0,0 l/m 0,0 km/h (0 Bft) NW 308 0 min 0,000 mm 0 W/m 16,8 C 19,6 C 0,0 km/h (0 Bft) 100 %
07.09.2014 20:40 19,4 C 19,4 C 19,6 C 85 % 1013,3 hPa 0,0 l/m 0,0 km/h (0 Bft) NW 308 0 min 0,000 mm 0 W/m 16,8 C 19,4 C 0,0 km/h (0 Bft) 100 %
07.09.2014 20:50 19,2 C 19,2 C 19,4 C 85 % 1013,4 hPa 0,0 l/m 0,0 km/h (0 Bft) NW 308 0 min 0,000 mm 0 W/m 16,6 C 19,2 C 0,0 km/h (0 Bft) 100 %
07.09.2014 21:00 18,9 C 18,9 C 19,2 C 85 % 1013,6 hPa 0,0 l/m 0,0 km/h (0 Bft) NW 308 0 min 0,000 mm 0 W/m 16,3 C 18,9 C 0,0 km/h (0 Bft) 99 %
07.09.2014 21:10 18,7 C 18,7 C 18,9 C 86 % 1013,6 hPa 0,0 l/m 0,0 km/h (0 Bft) NW 308 0 min 0,000 mm 0 W/m 16,3 C 18,7 C 0,0 km/h (0 Bft) 100 %
07.09.2014 21:20 18,5 C 18,5 C 18,7 C 86 % 1013,6 hPa 0,0 l/m 0,0 km/h (0 Bft) NW 308 0 min 0,000 mm 0 W/m 16,1 C 18,5 C 0,0 km/h (0 Bft) 100 %
07.09.2014 21:30 18,3 C 18,3 C 18,5 C 86 % 1013,6 hPa 0,0 l/m 0,0 km/h (0 Bft) N 0 0 min 0,000 mm 0 W/m 15,9 C 18,3 C 0,0 km/h (0 Bft) 97 %
07.09.2014 21:40 18,1 C 18,1 C 18,3 C 86 % 1013,5 hPa 0,0 l/m 0,0 km/h (0 Bft) N 0 0 min 0,000 mm 0 W/m 15,7 C 18,1 C 0,0 km/h (0 Bft) 97 %
07.09.2014 21:50 17,9 C 17,9 C 18,1 C 87 % 1013,6 hPa 0,0 l/m 0,0 km/h (0 Bft) NW 315 0 min 0,000 mm 0 W/m 15,7 C 17,9 C 1,6 km/h (1 Bft) 97 %
07.09.2014 22:00 17,7 C 17,7 C 17,9 C 87 % 1013,7 hPa 0,0 l/m 0,0 km/h (0 Bft) NW 315 0 min 0,000 mm 0 W/m 15,5 C 17,7 C 3,2 km/h (1 Bft) 98 %
07.09.2014 22:10 17,6 C 17,6 C 17,7 C 87 % 1013,7 hPa 0,0 l/m 0,0 km/h (0 Bft) N 0 0 min 0,000 mm 0 W/m 15,4 C 17,6 C 0,0 km/h (0 Bft) 97 %
07.09.2014 22:20 17,3 C 17,3 C 17,6 C 87 % 1013,7 hPa 0,0 l/m 0,0 km/h (0 Bft) NW 315 0 min 0,000 mm 0 W/m 15,1 C 17,3 C 3,2 km/h (1 Bft) 98 %
07.09.2014 22:30 17,1 C 17,1 C 17,3 C 87 % 1013,7 hPa 0,0 l/m 0,0 km/h (0 Bft) N 0 0 min 0,000 mm 0 W/m 14,9 C 17,1 C 0,0 km/h (0 Bft) 97 %
07.09.2014 22:40 16,9 C 16,9 C 17,1 C 87 % 1013,8 hPa 0,0 l/m 0,0 km/h (0 Bft) NW 315 0 min 0,000 mm 0 W/m 14,7 C 16,9 C 1,6 km/h (1 Bft) 97 %
07.09.2014 22:50 16,7 C 16,7 C 16,9 C 87 % 1013,8 hPa 0,0 l/m 0,0 km/h (0 Bft) N 0 0 min 0,000 mm 0 W/m 14,5 C 16,7 C 0,0 km/h (0 Bft) 98 %
07.09.2014 23:00 16,6 C 16,6 C 16,7 C 87 % 1013,9 hPa 0,0 l/m 0,0 km/h (0 Bft) NW 315 0 min 0,000 mm 0 W/m 14,4 C 16,6 C 3,2 km/h (1 Bft) 97 %
07.09.2014 23:10 16,4 C 16,4 C 16,6 C 87 % 1013,9 hPa 0,0 l/m 0,0 km/h (0 Bft) NW 315 0 min 0,000 mm 0 W/m 14,2 C 16,4 C 3,2 km/h (1 Bft) 98 %
07.09.2014 23:20 16,2 C 16,2 C 16,4 C 87 % 1013,7 hPa 0,0 l/m 0,0 km/h (0 Bft) NW 315 0 min 0,000 mm 0 W/m 14,0 C 16,2 C 1,6 km/h (1 Bft) 97 %
07.09.2014 23:30 16,1 C 16,1 C 16,2 C 87 % 1013,9 hPa 0,0 l/m 0,0 km/h (0 Bft) NW 315 0 min 0,000 mm 0 W/m 13,9 C 16,1 C 4,8 km/h (1 Bft) 98 %
07.09.2014 23:40 15,9 C 15,9 C 16,1 C 87 % 1014,0 hPa 0,0 l/m 0,0 km/h (0 Bft) NW 315 0 min 0,000 mm 0 W/m 13,7 C 15,9 C 1,6 km/h (1 Bft) 98 %
07.09.2014 23:50 15,8 C 15,8 C 15,9 C 87 % 1013,9 hPa 0,0 l/m 0,0 km/h (0 Bft) N 0 0 min 0,000 mm 0 W/m 13,6 C 15,8 C 0,0 km/h (0 Bft) 97 %
_ Min-Zeit 06:50 06:50 07:00 16:30 00:00 - 00:00 - - - - - 07:30 06:50 00:40 03:30
Minimum _ 13,3 C 13,3 C 13,3 C 60 % 1011,8 hPa - 0,0 km/h (0 Bft) - - - - - 11,3 C 13,3 C 0,0 km/h (0 Bft) 87 %
_ Max-Zeit 16:00 16:30 16:00 00:10 23:40 00:00 16:40 - - 09:40 14:00 13:50 12:50 16:30 16:30 09:00
Maximum _ 25,6 C 25,5 C 25,6 C 88 % 1014,0 hPa 0,0 l/m 5,6 km/h
W-NW (1 Bft)
- - 10 min 0,406 mm 777 W/m 19,2 C 25,6 C 16,1 km/h
W-NW (3 Bft)
100 %
Durchschnitt _ 18,3 C 18,2 C 18,3 C 82 % 1012,6 hPa #0,0 l/m 0,7 km/h (0 Bft) NW - #6:50 h #2,235 mm 291 W/m 14,9 C 18,3 C 3,6 km/h (1 Bft) 99 %
PRIVATE WETTERSTATION BILLIGHEIM-ALLFELD - www.neckar-odenwald-wetter.de - Holger Sonntag